Погода в Пинске

Погода в Пинске : погода сейчас, прогноз погоды и архив. Всё, что Вы хотите узнать о погоде в Пинске!

Хотите узнать прогноз погоды в Пинске? Тогда Вам сюда: Погода в Пинске

Поиск расширенной информации на нашем сайте:

Другие новости

Новости СМИ2

Главная страница сайта

Новости сайта

02.10.2013

Напоминаем, что на нашем новом сайте вы можете получить высокодетализированные прогнозы погоды по пунктам России, СНГ и мира (включающие важные для авиации метеовеличины, такие как направление и скорость ветра, видимость, явления погоды, количество и форма облачности, нижняя и верхняя граница облачности), а также ознакомиться с разнообразными материалами по авиационной метеорологии и подборкой полезных ссылок на эту тему.

Сайт Метеоцентр.Азия посвящён разработке технологий оптимизации авиаметеорологического обслуживания, включая проектирование и перспективное создание нескольких автоматизированных авиаметеорологических систем:
- система выпуска высокодетальных прогностических карт явлений погоды для нижнего воздушного пространства по России и ближнему зарубежью;
- система верификации прогнозов TAF (выпускаемых синоптиками официальных АМСГ РФ и ближнего зарубежья) и AUTOTAF (выпускаемых сайтом Метеоцентр.Азия) - выявление ошибок, онлайн-сопоставление с фактической погодой METAR, автоматическое внесение коррективов в прогнозы при резком отклонении фактической погоды от прогноза, подсчёт оправдываемости прогнозов по элементам и в целом;
- система обработки, анализа и отображения авиаметеорологической информации для применения провайдерами метеорологической информации.

Рекомендуем: Быстрый поиск работы - работа репетитором. Как перестать искать работу.

Погода в Пинске - сегодня

Время (UTC), дата Ветер
(°,м/с) 
Видим.   Явления Облачность Т
(°С)
Тd
(°С)
f(%) Тe
(°С)
Pmin
(гПа)
dP
(гПа)
Po
(мм)
O2
(г/м3)
Тmin Tmax R s Состояние
почвы
21 19.02.17 240 (ЮЗ) 10 км    10/10 300 м 
[St]
+1.8 -1.9 76 1020  -0.5  752  301           
00 20.02.17 240 (ЮЗ) 10 км    10/10 300 м 
[St]
+2 -1.4 78 +1  1019.2  -0.8  751  301           
03 20.02.17 240 (ЮЗ) 10 км    8/0 средняя 
[Ac trans]
+0.5 -1.8 85 1017.5  -1.8  750  302         
06 20.02.17 230 (ЮЗ) 10 км    8/0 верхняя 
[Ci fib]
+0.2 -2.2 84 -1  1016.7  -0.8  749  302  +0.1      равномерный
сухой снег
100% 
09 20.02.17 230 (ЮЗ) 10 км    9/0 средняя 
[Ac und]
+3.3 -0.8 74 +2  1015.6  -0.9  748  298           
12 20.02.17 250 (З) 10 км    9/9 600 м 
[Sc]
+4.2 -0.7 70 +3  1013.6  -1.8  747  297           
15 20.02.17 240 (ЮЗ) 10 км    9/9 1000 м 
[Sc]
+4.5 -0.6 69 +3  1011.2  -2.4  745  295           
18 20.02.17 250 (З) 10 км    9/0 средняя 
[Ac und]
+3.6 -0.5 75 +2  1008.9  -2.3  744  296    +4.8     
21 20.02.17 230 (ЮЗ) 4{11}  10 км    9/0 средняя 
[Ac und]
+4 -0.3 74 +2  1005.5  -3.4  741  294           
00 21.02.17 220 (ЮЗ) 5-10{13}  8000 м  слаб. дождь  10/10 300 м 
[Ns]
+2.7 +0 82 1001.8  -3.6  738  295           
03 21.02.17 250 (З) 5-10{11}  6000 м  слаб. дождь  10/10 300 м 
[Ns]
+1.6 +0.5 92 -1  998.4  -3.4  736  295       
06 21.02.17 250 (З) 6{11}  3800 м  слаб. дождь  10/10 300 м 
[Frnb|Ns]
+2.7 +1.9 94 996.5  -1.8  734  293  +1.5    мокрый или
старый снег
50-90% 
09 21.02.17 250 (З) 5{11}  3800 м  слаб. дождь  10/10 300 м 
[Frnb|Ns]
+4.1 +3.4 95 +2  996.4  -0.1  734  291           
12 21.02.17 270 (З) 5-10{11}  10 км  {дождь}  10/10 300 м 
[St]
+5.4 +3.2 86 +3  996.6  0.3  735  290           
15 21.02.17 260 (З) 5{11}  10 км    10/10 300 м 
[St]
+4.6 +1.8 82 +2  996.9  0.3  735  291      0.3     
18 21.02.17 270 (З) 10 км    10/10 300 м 
[St]
+4.1 +1 80 +2  998  736  292    +5.7  0.3     
21 21.02.17 280 (З) 4{10}  10 км    9/9 600 м 
[Sc]
+3.8 -0.5 73 +2  998.7  0.7  736  293           
00 22.02.17 270 (З) 6-11{13}  8000 м  слаб. дождь  10/10 200 м 
[Frnb|Ns]
+2 +0.4 89 -1  999.4  0.6  737  294           
03 22.02.17 290 (З) 5-11{13}  9000 м  дымка{дождь}  9/9 600 м 
[Sc]
+1.9 +0.3 89 -1  1001.8  2.3  738  295         
06 22.02.17 300 (СЗ) 3{10}  10 км  {дождь}  8/8 300 м 
[St]
+0.9 -2 81 -1  1004.8  2.9  740  298  +0.8       
09 22.02.17 300 (СЗ) 10 км    8/8 600 м 
[Sc]
+2 -2.7 71 +1  1005.4  0.6  741  297           
12 22.02.17 240 (ЮЗ) 15000 м    9/0 средняя 
[Ac und]
+4.3 -0.5 71 +3  1002.5  -2.7  739  293           
15 22.02.17 150 (ЮВ) 4{10}  7000 м  слаб. дождь  10/10 600 м 
[Ns]
+3 +1.2 88 +1  998.1  -4.3  736  293      0.7     
18 22.02.17 180 (Ю) 6000 м  слаб. дождь  10/10 600 м 
[Ns]
+3.8 +2.8 93 +3  994.6  -3.4  733  291    +5.1     
21 22.02.17 180 (Ю) 7000 м  дымка{дождь}  6/0 средняя 
[Ac trans]
+5.1 +3.9 92 +4  993.1  -1.4  732  289           
Время (UTC), дата Ветер
(°,м/с) 
Видим.   Явления Облачность Т
(°С)
Тd
(°С)
f(%) Тe
(°С)
Pmin
(гПа)
dP
(гПа)
Po
(мм)
O2
(г/м3)
Тmin Tmax R s Состояние
почвы

Для получения пояснительной информации подведите курсор к названию столбца.

ПОГОДА в Пинске - архив

Всё, что Вы хотите узнать о погоде в Пинске - удобно и подробно!

Выберите нужную дату (начиная с 1 января 2015* года) и нажмите кнопку "Найти".
Будут отображены архивные сводки погоды по пункту Пинск, начиная с указанной даты.


Отображать данные в формате CSV (для использования в таблицах Excel)


Внимание! Наш архив погоды предназначен исключительно для личного некоммерческого использования в познавательных целях. Если Вам необходимы официальные справки о состоянии погоды (для производственных, юридических, коммерческих и т.п. целей), обращайтесь в органы Росгидромета.

*Примечание: данная дата относится к архиву по метеостанциям СССР (Россия, СНГ, Балтия).
Архив по метеостанциям Зарубежной Европы и Азии (кроме Китая) хранится 10 дней, по другим регионам земного шара (Китай, Африка, Америка, Австралия, Океания) - 1 день.

Пинск - район местоположения метеостанции


Название, широта, долгота, высота метеостанции:
Пинск 52.1°ш. 26.1°д. 142 м над ур. моря [Беларусь]

Дополнительная информация

В oтличие oт бoльшинства пoгoдных сайтoв мы публикуем пoдрoбную метеoинфoрмацию в детальнoм прoфессиoнальнoм фoрмате.

Характеристики температуры и влажнoсти вoздуха измеряются на высoте 2 м в тени вдали oт зданий и деревьев.
Скoрoсть ветра измеряется на высoте 10 м (на урoвне рoста челoвека скoрoсть ветра ниже в 1.5-2 раза). Если метеoстанция нахoдится в гoрoде или в лесу, тo скoрoсть ветра занижена на 2-4 м/с пo сравнению с oткрытым местoм. Скoрoсть ветра над акватoриями крупных рек и oзёр, а также на вершинах хoлмoв на 2-5 м/с выше, чем в oбычных услoвиях.
Атмoсфернoе давление в разных тoчках местнoсти мoжет значительнo oтличаться oт давления на метеoстанции, в зависимoсти oт услoвий рельефа (при пoдъёме на 10 м давление пoнижается примернo на 1 мм рт.ст.).